Location: Corsier
(46.2637°N, 6.2238°E)
Time: 07:45:36
(UTC+00:00)

CZ-4C R/B - Pass Details

Date: 07 June 2020
Orbit: 634 x 1368 km, 63.4° (Epoch: 14 July)

Event Time Altitude Azimuth Distance (km) Brightness Sun altitude
Exits shadow 01:16:45 - 264° (W) 2,498 4.4 -17.1°
Reaches altitude 10° 01:17:20 10° 267° (W) 2,315 4.2 -17.1°
Maximum altitude 01:22:01 30° 329° (NNW) 1,491 3.8 -16.7°
Drops below altitude 10° 01:27:32 10° 30° (NNE) 2,740 6.2 -16.3°
Sets 01:30:44 0° 40° (NE) 3,829 7.2 -16.1°
